{"data":{"norad_id":53528,"intl_designator":"2022-101B","name":"STARLINK-4503","alt_names":[],"object_type":"PAYLOAD","status":"ACTIVE","operator":null,"country":"US","launch_date":"2022-08-19","launch_site_code":"AFETR","launch_vehicle":null,"mission":null,"orbit_class":"UNKNOWN","rcs_meters":null,"size_class":null,"mass_kg":null,"dimensions":null,"purposes":["comms"],"wikipedia_slug":null,"has_3d_model":false,"image_url":null,"decayed_at":null,"tle_current":{"epoch":"2026-05-25T03:42:16.519104Z","epoch_age_seconds":55583,"freshness":"FRESH","line1":"1 53528U 22101B   26145.15435786 -.00000285  00000+0  17641-6 0  9996","line2":"2 53528  53.2127  90.8588 0001433  71.6356 288.4792 15.08830081207702","mean_motion":15.08830081,"eccentricity":0.0001433,"inclination_deg":53.2127,"raan_deg":90.8588,"arg_perigee_deg":71.6356,"mean_anomaly_deg":288.4792,"bstar":1.7641e-7,"rev_number":20770,"period_min":95.438182081154,"perigee_km":538.78237094065,"apogee_km":540.76504414943,"semimajor_km":6917.910707545,"source":"CELESTRAK","updated_at":"2026-05-25T13:38:17.439245Z"}}}